• en France
  • Liste des pays
  • À 7 jours
  • Température de l'eau
  • Carte satellitaire
  • Carte météo
  • Widgets météo
  • user-avatar
    Se connecter

    Météo par heure à Kahabroso

    Ce jour, 21 Août, Mardi

    Heure Température Précipitation Vent Pression Humidité
    00:00 +9°C° 0 mm 2 m/s 617 mmHg 74%
    01:00 +9°C° 0 mm 2 m/s 616 mmHg 73%
    02:00 +9°C° 0 mm 2 m/s 616 mmHg 72%
    03:00 +9°C° 0 mm 3 m/s 616 mmHg 74%
    04:00 +9°C° 0 mm 3 m/s 616 mmHg 73%
    05:00 +9°C° 0 mm 2 m/s 616 mmHg 72%
    06:00 +9°C° 0 mm 2 m/s 616 mmHg 72%
    07:00 +13°C° 0 mm 2 m/s 617 mmHg 64%
    08:00 +15°C° 0 mm 2 m/s 618 mmHg 57%
    09:00 +18°C° 0 mm 2 m/s 619 mmHg 50%
    10:00 +19°C° 0 mm 3 m/s 619 mmHg 48%
    11:00 +20°C° 0 mm 3 m/s 619 mmHg 46%
    12:00 +21°C° 0 mm 3 m/s 620 mmHg 45%
    13:00 +21°C° 0 mm 3 m/s 619 mmHg 47%
    14:00 +20°C° 0 mm 4 m/s 619 mmHg 49%
    15:00 +20°C° 0 mm 4 m/s 619 mmHg 51%
    16:00 +19°C° 0,1 mm 3 m/s 618 mmHg 57%
    17:00 +18°C° 0,1 mm 3 m/s 618 mmHg 62%
    18:00 +17°C° 0,1 mm 2 m/s 618 mmHg 68%
    19:00 +15°C° 0 mm 2 m/s 617 mmHg 71%
    20:00 +14°C° 0 mm 2 m/s 617 mmHg 75%
    21:00 +13°C° 0 mm 2 m/s 616 mmHg 78%
    22:00 +13°C° 0 mm 2 m/s 616 mmHg 77%
    23:00 +12°C° 0 mm 2 m/s 616 mmHg 75%

    Demain, 22 Août, Mercredi

    Heure Température Précipitation Vent Pression Humidité
    00:00 +12°C° 0 mm 2 m/s 616 mmHg 73%
    01:00 +12°C° 0 mm 2 m/s 615 mmHg 70%
    02:00 +12°C° 0 mm 2 m/s 615 mmHg 68%
    03:00 +12°C° 0 mm 2 m/s 615 mmHg 65%
    04:00 +12°C° 0 mm 2 m/s 615 mmHg 63%
    05:00 +12°C° 0 mm 2 m/s 616 mmHg 61%
    06:00 +13°C° 0 mm 2 m/s 616 mmHg 59%
    07:00 +15°C° 0 mm 1 m/s 617 mmHg 55%
    08:00 +18°C° 0 mm 1 m/s 617 mmHg 51%
    09:00 +20°C° 0 mm 1 m/s 618 mmHg 46%
    10:00 +21°C° 0 mm 1 m/s 618 mmHg 46%
    11:00 +20°C° 0 mm 2 m/s 618 mmHg 45%
    12:00 +21°C° 0 mm 2 m/s 619 mmHg 45%
    13:00 +21°C° 0,3 mm 2 m/s 618 mmHg 47%
    14:00 +21°C° 0,3 mm 2 m/s 618 mmHg 50%
    15:00 +20°C° 0,3 mm 2 m/s 618 mmHg 53%
    16:00 +19°C° 0,3 mm 2 m/s 617 mmHg 58%
    17:00 +18°C° 0,3 mm 2 m/s 617 mmHg 63%
    18:00 +18°C° 0,3 mm 1 m/s 617 mmHg 68%
    19:00 +16°C° 0,2 mm 1 m/s 617 mmHg 70%
    20:00 +15°C° 0,2 mm 1 m/s 617 mmHg 73%
    21:00 +14°C° 0,2 mm 1 m/s 617 mmHg 76%
    22:00 +14°C° 0,2 mm 2 m/s 617 mmHg 77%
    23:00 +13°C° 0,2 mm 2 m/s 617 mmHg 77%

    Après-demain, 23 Août, Jeudi

    Heure Température Précipitation Vent Pression Humidité
    00:00 +13°C° 0,2 mm 2 m/s 616 mmHg 77%
    01:00 +13°C° 0 mm 2 m/s 616 mmHg 77%
    02:00 +12°C° 0 mm 2 m/s 616 mmHg 77%
    03:00 +12°C° 0 mm 2 m/s 616 mmHg 77%
    04:00 +12°C° 0 mm 2 m/s 616 mmHg 77%
    05:00 +13°C° 0 mm 2 m/s 616 mmHg 76%
    06:00 +13°C° 0 mm 2 m/s 617 mmHg 75%
    07:00 +15°C° 0 mm 2 m/s 617 mmHg 68%
    08:00 +17°C° 0 mm 2 m/s 618 mmHg 61%
    09:00 +18°C° 0 mm 2 m/s 619 mmHg 54%
    10:00 +19°C° 0,1 mm 2 m/s 619 mmHg 53%
    11:00 +20°C° 0,1 mm 2 m/s 620 mmHg 51%
    12:00 +20°C° 0,1 mm 3 m/s 620 mmHg 49%
    13:00 +20°C° 0,4 mm 3 m/s 619 mmHg 51%
    14:00 +20°C° 0,4 mm 3 m/s 619 mmHg 52%
    15:00 +19°C° 0,4 mm 3 m/s 619 mmHg 54%
    16:00 +18°C° 0,1 mm 3 m/s 619 mmHg 58%
    17:00 +17°C° 0,1 mm 2 m/s 618 mmHg 62%
    18:00 +17°C° 0,1 mm 2 m/s 618 mmHg 66%
    19:00 +15°C° 0 mm 2 m/s 618 mmHg 71%
    20:00 +14°C° 0 mm 2 m/s 618 mmHg 75%
    21:00 +13°C° 0 mm 1 m/s 618 mmHg 80%
    22:00 +12°C° 0,1 mm 1 m/s 617 mmHg 79%
    23:00 +12°C° 0,1 mm 1 m/s 617 mmHg 79%

    24 Août, Vendredi

    Heure Température Précipitation Vent Pression Humidité
    00:00 +12°C° 0,1 mm 1 m/s 617 mmHg 79%
    01:00 +12°C° 0 mm 1 m/s 617 mmHg 78%
    02:00 +12°C° 0 mm 1 m/s 617 mmHg 78%
    03:00 +11°C° 0 mm 1 m/s 617 mmHg 77%
    04:00 +11°C° 0 mm 1 m/s 617 mmHg 77%
    05:00 +12°C° 0 mm 1 m/s 617 mmHg 76%
    06:00 +12°C° 0 mm 1 m/s 617 mmHg 76%
    07:00 +14°C° 0 mm 2 m/s 618 mmHg 70%
    08:00 +16°C° 0 mm 2 m/s 619 mmHg 64%
    09:00 +18°C° 0 mm 3 m/s 620 mmHg 58%
    10:00 +18°C° 0 mm 3 m/s 620 mmHg 57%
    11:00 +19°C° 0 mm 4 m/s 620 mmHg 55%
    12:00 +20°C° 0 mm 4 m/s 620 mmHg 54%
    13:00 +19°C° 0,1 mm 4 m/s 619 mmHg 56%
    14:00 +19°C° 0,1 mm 4 m/s 619 mmHg 59%
    15:00 +18°C° 0,1 mm 4 m/s 619 mmHg 61%
    16:00 +17°C° 0,1 mm 4 m/s 618 mmHg 65%
    17:00 +16°C° 0,1 mm 3 m/s 618 mmHg 68%
    18:00 +14°C° 0,1 mm 3 m/s 617 mmHg 72%
    19:00 +13°C° 0,1 mm 3 m/s 617 mmHg 75%
    20:00 +13°C° 0,1 mm 2 m/s 617 mmHg 78%
    21:00 +12°C° 0,1 mm 2 m/s 617 mmHg 81%
    22:00 +10°C° 0 mm 2 m/s 617 mmHg 80%
    23:00 +10°C° 0 mm 2 m/s 616 mmHg 78%

    25 Août, Samedi

    Heure Température Précipitation Vent Pression Humidité
    00:00 +10°C° 0 mm 2 m/s 616 mmHg 77%
    01:00 +10°C° 0 mm 2 m/s 616 mmHg 76%
    02:00 +10°C° 0 mm 2 m/s 616 mmHg 76%
    03:00 +9°C° 0 mm 2 m/s 616 mmHg 75%
    04:00 +10°C° 0 mm 2 m/s 616 mmHg 74%
    05:00 +10°C° 0 mm 2 m/s 616 mmHg 73%
    06:00 +10°C° 0 mm 2 m/s 616 mmHg 73%
    07:00 +13°C° 0 mm 2 m/s 617 mmHg 66%
    08:00 +15°C° 0 mm 2 m/s 617 mmHg 60%
    09:00 +17°C° 0 mm 3 m/s 618 mmHg 53%
    10:00 +18°C° 0 mm 3 m/s 618 mmHg 52%
    11:00 +19°C° 0 mm 4 m/s 619 mmHg 50%
    12:00 +20°C° 0 mm 4 m/s 619 mmHg 49%
    13:00 +20°C° 0 mm 4 m/s 619 mmHg 50%
    14:00 +20°C° 0 mm 4 m/s 618 mmHg 51%
    15:00 +20°C° 0 mm 4 m/s 618 mmHg 52%
    16:00 +18°C° 0 mm 4 m/s 618 mmHg 57%
    17:00 +17°C° 0 mm 4 m/s 617 mmHg 61%
    18:00 +16°C° 0 mm 3 m/s 617 mmHg 66%
    19:00 +14°C° 0 mm 3 m/s 617 mmHg 69%
    20:00 +12°C° 0 mm 3 m/s 616 mmHg 72%
    21:00 +12°C° 0 mm 2 m/s 616 mmHg 75%
    22:00 +12°C° 0 mm 2 m/s 616 mmHg 72%
    23:00 +12°C° 0 mm 2 m/s 615 mmHg 70%

    26 Août, Dimanche

    Heure Température Précipitation Vent Pression Humidité
    00:00 +12°C° 0 mm 2 m/s 615 mmHg 67%
    01:00 +10°C° 0 mm 2 m/s 615 mmHg 66%
    02:00 +10°C° 0 mm 2 m/s 615 mmHg 64%
    03:00 +10°C° 0 mm 2 m/s 615 mmHg 62%
    04:00 +10°C° 0 mm 2 m/s 615 mmHg 61%
    05:00 +10°C° 0 mm 2 m/s 615 mmHg 60%
    06:00 +12°C° 0 mm 2 m/s 615 mmHg 59%
    07:00 +13°C° 0 mm 3 m/s 616 mmHg 53%
    08:00 +17°C° 0 mm 3 m/s 616 mmHg 46%
    09:00 +20°C° 0 mm 3 m/s 617 mmHg 39%
    10:00 +21°C° 0 mm 3 m/s 617 mmHg 38%
    11:00 +21°C° 0 mm 4 m/s 617 mmHg 37%
    12:00 +22°C° 0 mm 4 m/s 617 mmHg 36%
    13:00 +22°C° 0 mm 4 m/s 617 mmHg 38%
    14:00 +22°C° 0 mm 4 m/s 617 mmHg 40%
    15:00 +22°C° 0 mm 4 m/s 616 mmHg 42%
    16:00 +20°C° 0 mm 4 m/s 616 mmHg 48%
    17:00 +19°C° 0 mm 3 m/s 615 mmHg 54%
    18:00 +17°C° 0 mm 3 m/s 615 mmHg 60%
    19:00 +16°C° 0 mm 3 m/s 615 mmHg 62%
    20:00 +15°C° 0 mm 2 m/s 614 mmHg 64%
    21:00 +13°C° 0 mm 2 m/s 614 mmHg 66%
    22:00 +13°C° 0 mm 2 m/s 614 mmHg 64%
    23:00 +13°C° 0 mm 2 m/s 613 mmHg 61%
    Voir plus